Regional Weather Roundup
Issued by NWS Newport/Morehead, NC

Current Version | Previous Version | Text Only | Print | Product List | Glossary Off
Versions: 1 2 3 4 5 6 7 8 9 10 11 12 13 14 15 16 17 18 19 20 21 22 23 24 25 26 27 28 29 30 31 32 33 34 35 36 37 38 39 40 41 42 43 44 45 46 47 48 49 50
000 ASUS42 KMHX 241722 RWRMHX WEATHER ROUNDUP FOR EASTERN NORTH CAROLINA NATIONAL WEATHER SERVICE NEWPORT/MOREHEAD CITY NC 100 PM EDT THU JUL 24 2014 NOTE: "FAIR" INDICATES FEW OR NO CLOUDS BELOW 12,000 FEET WITH NO SIGNIFICANT WEATHER AND/OR OBSTRUCTIONS TO VISIBILITY NCZ015>017-031-032-045>047-102-103-241800- NORTH COAST CITY SKY/WX TMP DP RH WIND PRES REMARKS EDENTON LGT RAIN 74 73 94 CALM 29.91S ELIZABETH CITY CLOUDY 78 68 71 NE9 29.88S KITTY HAWK LGT RAIN 75 69 81 NW8G18 29.87R MANTEO NOT AVBL $$ NCZ045>047-081-094-103-104-241800- CENTRAL COAST CITY SKY/WX TMP DP RH WIND PRES REMARKS FRISCO SUNNY 86 78 77 SW12G20 29.87F SWANQUARTER N/A 73 N/A N/A NW23G39 29.85R $$ NCZ095-097-098-100-101-241800- SOUTHERN COAST CITY SKY/WX TMP DP RH WIND PRES REMARKS BEAUFORT MOSUNNY 86 80 82 SW23 29.89S HX 101 CEDAR ISLAND N/A 82 N/A N/A W14 29.91S JACKSONVILLE PTSUNNY 89 73 59 SW9 29.87F NEWPORT NOT AVBL PINEY ISLAND RAIN 79 76 90 W13G18 29.89R FOG WILMINGTON SUNNY 92 73 53 SW18G25 29.89F HX 100 $$ NCZ011>013-027>030-043-044-078>080-089-090>093-098-241800- COASTAL PLAIN CITY SKY/WX TMP DP RH WIND PRES REMARKS AHOSKIE CLOUDY 76 68 76 NE3 29.91R CLINTON PTSUNNY 88 76 67 W14G21 29.88S ELIZABETHTOWN MOSUNNY 90 73 57 SW10G18 29.89F GOLDSBORO LGT RAIN 79 79 100 NW3 29.88R GREENVILLE LGT RAIN 73 73 100 S3 29.92F HAVELOCK NOT AVBL KENANSVILLE PTSUNNY 88 72 59 W9 29.88S KINSTON RAIN 73 73 100 E3 29.91S NEW BERN LGT RAIN 77 70 78 N22G30 29.92R RICHLANDS PTSUNNY 91 75 59 SW17 29.86F HX 102 ROANOKE RAPIDS NOT AVBL ROCKY MOUNT PTSUNNY 83 73 72 E5 29.90S WASHINGTON PTSUNNY 72 71 96 CALM 29.92R WHITEVILLE PTSUNNY 90 73 58 SW9G18 29.90F $$ AMZ130-135-150-152-154-156-158-170-250-252-270-ANZ085-086-088-633-658-670-241800- MARINE OBSERVATIONS STATION/POSITION TIME TEMP WIND PRES WAVE SWELL AIR SEA DIR/SP/G HT/PER HT/PER (UTC) (F) (DEG/KT/KT) (MB) (FT/S) (FT/S) CHESAPEAKE LIGHT NOT AVBL BUOY 44014 1700 74 78 20/ 17/ 21 1010.1 4/ 6 2/12 DUCK 1700 73 71 340/ 15/ 16 1010.8 2E DUCK 1700 N/A 2/ 9 OREGON INLET 1700 79 83 180/ 6/ 11 1011.9 BUOY 44095 1700 78 N/A 3/ 7 20E OREGON INLET 1600 VRB 10/ 12 N/A HATTERAS CG 1700 83 81 210/ 12/ 17 1012.0 DIAMOND BUOY 1700 VRB 17/ 21 1011.7 4/ 7 2/ 7 CAPE LOOKOUT 1700 83 220/ 14/ 19 1012.2 BEAUFORT LAB 1700 84 81 220/ 10/ 19 1012.0 30 SE NEW RIVER 1700 81 81 220/ 17/ 21 1012.8 4/ 6 5 SE WRIGHTSVILL 1700 80 82 210/ 17/ 21 N/A BUOY 41002 1607 81 82 240/ 21/ 23 1017.3 6/ 6 2/ 9 BUOY 41004 1700 83 83 230/ 12/ 14 1014.4 4/ 6 2/ 7 $$

USA.gov is the U.S. government's official web portal to all federal, state and local government web resources and services.